[[{"header":{"parameterUnit":"m.s-1","parameterCategory":2,"la1":30.2992,"la2":30.254,"lo1":-89.0895,"lo2":-89.0443,"dy":0.0025,"dx":0.0025,"nx":19,"ny":19,"refTime":"2026-04-21T03:00:00:Z","depth":"0","parameterNumber":2,"parameterNumberName":"U-component_of_CURRENTS"},"data":[0,0,0,-0.2664,-0.2666,-0.2742,-0.2743,-0.2812,-0.2813,0,0,0,0,0,0,0,0,0,0,0,-0.2622,-0.2622,-0.2664,-0.2666,-0.2742,-0.2743,-0.2812,-0.2813,0,0,0,0,0,0,0,0,0,0,0,-0.2622,-0.2622,-0.2623,-0.2667,-0.2742,-0.2743,-0.2812,-0.276,0,0,0,0,0,0,0,0,0,0,-0.2688,-0.2645,-0.2622,-0.2623,-0.2667,-0.2742,-0.2743,-0.2757,-0.2763,-0.2772,0,-0.2779,0,-0.2808,-0.2818,-0.2818,0,0,0,-0.2659,-0.264,-0.2676,-0.2623,-0.2668,-0.2742,-0.2706,-0.2761,-0.2767,-0.2779,-0.2781,-0.2784,-0.2809,-0.2818,-0.2819,-0.2915,-0.2916,0,0,-0.2655,-0.2623,-0.2672,-0.268,-0.2682,-0.2704,-0.2709,-0.2765,-0.2759,-0.2781,-0.2786,-0.281,-0.2819,-0.2819,-0.2915,-0.2916,0,0,0,-0.2648,-0.262,-0.2654,-0.2676,-0.2698,-0.2706,-0.2712,-0.2756,-0.2772,-0.2787,-0.2811,-0.2819,-0.282,-0.2914,-0.2915,-0.2928,0,0,0,-0.2645,-0.2617,-0.2652,-0.2633,-0.2697,-0.273,-0.2701,-0.2767,-0.2775,-0.2811,-0.2819,-0.2821,-0.2914,-0.2915,-0.2926,-0.2915,0,0,0,-0.262,-0.2615,-0.2625,-0.2631,-0.2671,-0.2731,-0.2749,-0.277,-0.279,-0.2818,-0.2821,-0.2913,-0.2915,-0.2925,-0.2913,-0.2879,0,0,0,-0.2583,-0.2613,-0.2623,-0.2673,-0.2671,-0.2768,-0.2749,-0.2809,-0.2837,-0.2819,-0.2914,-0.2915,-0.2924,-0.2912,-0.2879,-0.2667,-0.2651,0,0,-0.261,-0.2614,-0.2652,-0.2665,-0.2755,-0.2757,-0.2836,-0.2855,-0.2857,-0.2891,-0.2893,-0.2927,-0.2913,-0.2879,-0.2742,-0.2723,0,0,0,-0.2656,-0.267,-0.2705,-0.2753,-0.2823,-0.2856,-0.2891,-0.2895,-0.2917,-0.2882,-0.2949,-0.2941,-0.2918,-0.2791,-0.2778,-0.2689,-0.2921,-0.2921,-0.2921,-0.2611,-0.2678,-0.2735,-0.2812,-0.2867,-0.293,-0.2949,-0.2957,-0.2967,-0.2975,-0.2968,-0.2974,-0.2842,-0.2829,-0.2743,-0.2997,-0.2998,-0.2998,-0.2998,-0.263,-0.2652,-0.2735,-0.2809,-0.2869,-0.2926,-0.2986,-0.2989,-0.2994,-0.3003,-0.298,-0.2833,-0.2813,-0.2727,-0.2999,-0.2999,-0.2998,-0.2998,-0.2998,-0.2571,-0.2589,-0.265,-0.2738,-0.2809,-0.2896,-0.2921,-0.2973,-0.2985,-0.2984,-0.2813,-0.281,-0.2714,-0.2965,-0.2965,-0.2964,-0.2964,-0.2964,-0.2964,-0.246,-0.2531,-0.255,-0.2662,-0.2699,-0.2773,-0.2873,-0.2875,-0.2825,-0.2797,-0.2795,-0.2694,-0.2963,-0.294,-0.2961,-0.2962,-0.2962,-0.2962,-0.2963,-0.235,-0.2383,-0.2408,-0.2442,-0.2542,-0.253,-0.2678,-0.2611,-0.2625,-0.2541,-0.2444,-0.2682,-0.2643,-0.2652,-0.2622,-0.256,-0.256,-0.256,-0.2559,-0.223,-0.2268,-0.2248,-0.227,-0.2323,-0.2401,-0.2263,-0.2242,-0.2202,-0.2139,-0.2235,-0.2196,-0.2216,-0.2154,-0.2174,-0.2136,-0.1951,-0.1951,-0.195,-0.2117,-0.2148,-0.2075,-0.2142,-0.2204,-0.2205,-0.1994,-0.183,-0.1827,-0.1928,-0.216,-0.2186,-0.214,-0.2178,-0.2093,-0.2129,-0.2071,0,0]},{"header":{"parameterUnit":"m.s-1","parameterCategory":2,"la1":30.2992,"la2":30.254,"lo1":-89.0895,"lo2":-89.0443,"dy":0.0025,"dx":0.0025,"nx":19,"ny":19,"refTime":"2026-04-21T03:00:00:Z","depth":"0","parameterNumber":3,"parameterNumberName":"V-component_of_CURRENTS"},"data":[0,0,0,-0.0339,-0.0338,-0.0241,-0.0241,-0.0059,-0.0058,0,0,0,0,0,0,0,0,0,0,0,-0.0373,-0.0373,-0.0339,-0.0338,-0.0242,-0.0241,-0.0059,-0.0058,0,0,0,0,0,0,0,0,0,0,0,-0.0373,-0.0373,-0.0373,-0.0338,-0.0242,-0.0241,-0.006,-0.0142,0,0,0,0,0,0,0,0,0,0,-0.0241,-0.0292,-0.0373,-0.0373,-0.0337,-0.0242,-0.0241,-0.0147,-0.0137,-0.0093,0,-0.0092,0,-0.0077,-0.0046,-0.0045,0,0,0,-0.0318,-0.03,-0.0274,-0.0373,-0.0337,-0.0242,-0.0279,-0.0142,-0.0131,-0.008,-0.0089,-0.0083,-0.0074,-0.0045,-0.0044,0.0083,0.0083,0,0,-0.0323,-0.0348,-0.0282,-0.0268,-0.0328,-0.0283,-0.0277,-0.0135,-0.013,-0.0089,-0.0079,-0.0071,-0.0044,-0.0042,0.0083,0.0083,0,0,0,-0.0352,-0.0352,-0.033,-0.0275,-0.0266,-0.028,-0.0273,-0.0136,-0.0129,-0.0077,-0.0069,-0.0043,-0.0041,0.0083,0.0083,-0.0017,0,0,0,-0.0354,-0.037,-0.0333,-0.0346,-0.0269,-0.0209,-0.0277,-0.0139,-0.0123,-0.007,-0.0043,-0.0039,0.0082,0.0083,-0.0015,-0.006,0,0,0,-0.0374,-0.0372,-0.0367,-0.0348,-0.0315,-0.0211,-0.0195,-0.0135,-0.0119,-0.0045,-0.0038,0.0082,0.0083,-0.0012,-0.0056,0.0006,0,0,0,-0.0394,-0.0426,-0.0368,-0.0395,-0.0316,-0.0283,-0.0196,-0.0154,-0.0102,-0.0042,0.0082,0.0083,-0.0012,-0.0053,0.0007,0.0116,0.0119,0,0,-0.0453,-0.0433,-0.045,-0.0397,-0.0403,-0.0293,-0.0265,-0.016,-0.0077,0.0044,0.0047,-0.0015,-0.0055,0.0006,0.0127,0.013,0,0,0,-0.0482,-0.0497,-0.0487,-0.0473,-0.0417,-0.0348,-0.0241,-0.0171,-0.0065,-0.0047,0.0017,-0.0004,0.0038,0.0107,0.0109,0.0343,0.0084,0.0084,0.0084,-0.0583,-0.0557,-0.0583,-0.0539,-0.0501,-0.0376,-0.0304,-0.0179,-0.0106,-0.0069,-0.0062,-0.0054,0.0017,0.0021,0.0259,-0.0032,-0.0032,-0.0033,-0.0033,-0.0686,-0.0707,-0.0653,-0.0673,-0.0576,-0.0527,-0.0349,-0.0274,-0.0135,-0.0103,-0.0056,0.0026,0.0018,0.0271,-0.0039,-0.0038,-0.0037,-0.0036,-0.0036,-0.0762,-0.0771,-0.0771,-0.0777,-0.0732,-0.0614,-0.0512,-0.0386,-0.0224,-0.0191,-0.0024,-0.0021,0.0189,-0.0145,-0.0145,-0.0145,-0.0145,-0.0144,-0.0144,-0.0845,-0.0843,-0.0891,-0.0881,-0.0875,-0.0807,-0.061,-0.0479,-0.0244,-0.0106,-0.0103,0.0237,-0.0085,-0.0096,-0.0144,-0.0144,-0.0144,-0.0144,-0.0144,-0.0945,-0.094,-0.1019,-0.1035,-0.1013,-0.0902,-0.074,-0.0387,-0.0229,-0.0071,0.0333,-0.0013,0.005,0.0051,0.0047,0.0039,0.0039,0.0039,0.0039,-0.1007,-0.1013,-0.1109,-0.1146,-0.1127,-0.095,-0.0625,-0.0254,0.0231,0.0495,0.0538,0.0597,0.0579,0.0678,0.0664,0.0674,0.0826,0.0828,0.0829,-0.1061,-0.1091,-0.1158,-0.1193,-0.117,-0.0947,-0.0536,0.0024,0.0666,0.0881,0.0843,0.081,0.0912,0.0865,0.103,0.0992,0.1011,0,0]}],[{"header":{"parameterUnit":"m.s-1","parameterCategory":2,"la1":30.2992,"la2":30.254,"lo1":-89.0895,"lo2":-89.0443,"dy":0.0025,"dx":0.0025,"nx":19,"ny":19,"refTime":"2026-04-21T03:00:00:Z","depth":"2","parameterNumber":2,"parameterNumberName":"U-component_of_CURRENTS"},"data":[0,0,0,-0.2504,-0.2506,-0.2578,-0.2579,-0.2633,-0.2633,0,0,0,0,0,0,0,0,0,0,0,-0.2466,-0.2467,-0.2504,-0.2506,-0.2578,-0.2579,-0.2633,-0.2633,0,0,0,0,0,0,0,0,0,0,0,-0.2466,-0.2467,-0.2467,-0.2507,-0.2578,-0.2579,-0.2633,-0.2586,0,0,0,0,0,0,0,0,0,0,-0.252,-0.2484,-0.2466,-0.2467,-0.2507,-0.2578,-0.2579,-0.2584,-0.2589,-0.2591,0,-0.26,0,-0.2627,-0.2637,-0.2637,0,0,0,-0.25,-0.248,-0.2512,-0.2467,-0.2508,-0.2578,-0.2544,-0.2587,-0.2593,-0.2598,-0.2601,-0.2604,-0.2627,-0.2637,-0.2637,-0.2715,-0.2715,0,0,-0.2496,-0.2469,-0.2508,-0.2515,-0.2523,-0.2542,-0.2546,-0.2591,-0.2586,-0.2602,-0.2606,-0.2628,-0.2638,-0.2638,-0.2715,-0.2715,0,0,0,-0.2489,-0.2465,-0.2497,-0.2512,-0.2533,-0.2544,-0.2549,-0.2584,-0.2598,-0.2607,-0.2629,-0.2638,-0.2638,-0.2714,-0.2715,-0.2737,0,0,0,-0.2486,-0.2463,-0.2495,-0.2478,-0.2533,-0.2564,-0.2541,-0.2594,-0.2601,-0.2629,-0.2638,-0.2639,-0.2714,-0.2714,-0.2735,-0.2726,0,0,0,-0.2464,-0.246,-0.247,-0.2476,-0.2514,-0.2564,-0.258,-0.2597,-0.2615,-0.2637,-0.2639,-0.2713,-0.2714,-0.2734,-0.2725,-0.2697,0,0,0,-0.2432,-0.2458,-0.2469,-0.2513,-0.2513,-0.2598,-0.258,-0.2633,-0.2657,-0.2638,-0.2714,-0.2715,-0.2733,-0.2723,-0.2696,-0.2488,-0.2474,0,0,-0.2454,-0.2459,-0.2492,-0.2505,-0.2583,-0.2588,-0.2657,-0.2673,-0.2672,-0.2694,-0.2696,-0.2736,-0.2724,-0.2697,-0.2553,-0.2536,0,0,0,-0.2495,-0.2507,-0.2537,-0.258,-0.2641,-0.2673,-0.2704,-0.2709,-0.2729,-0.2693,-0.2753,-0.2745,-0.2726,-0.26,-0.2588,-0.272,-0.272,-0.272,-0.272,-0.2455,-0.2513,-0.2561,-0.2628,-0.2678,-0.2737,-0.2757,-0.2764,-0.2773,-0.2783,-0.2776,-0.2787,-0.2656,-0.2644,-0.2801,-0.2801,-0.2801,-0.2801,-0.2801,-0.2467,-0.2483,-0.2559,-0.2623,-0.268,-0.2733,-0.2791,-0.2797,-0.2805,-0.2812,-0.2793,-0.2647,-0.263,-0.2804,-0.2803,-0.2803,-0.2803,-0.2803,-0.2802,-0.2411,-0.2424,-0.2481,-0.2559,-0.2627,-0.271,-0.2735,-0.2789,-0.2804,-0.2806,-0.264,-0.2637,-0.2766,-0.2793,-0.2793,-0.2793,-0.2793,-0.2793,-0.2793,-0.2307,-0.237,-0.2386,-0.2488,-0.2523,-0.2595,-0.2695,-0.2698,-0.2656,-0.2631,-0.2629,-0.2783,-0.2783,-0.2765,-0.2791,-0.2791,-0.2791,-0.2791,-0.2792,-0.2197,-0.2231,-0.2249,-0.2281,-0.2371,-0.2344,-0.2502,-0.2443,-0.2463,-0.2384,-0.2514,-0.2522,-0.2481,-0.2489,-0.2462,-0.2409,-0.2409,-0.2409,-0.2408,-0.2083,-0.2119,-0.2093,-0.2109,-0.2149,-0.2212,-0.2062,-0.2034,-0.21,-0.2091,-0.2105,-0.2066,-0.2087,-0.2024,-0.2043,-0.2008,-0.1836,-0.1835,-0.1834,-0.1974,-0.2002,-0.1927,-0.1984,-0.2028,-0.2006,-0.1766,-0.1554,-0.1578,-0.1817,-0.2065,-0.2359,-0.2339,-0.2358,-0.2292,-0.231,-0.2266,0,0]},{"header":{"parameterUnit":"m.s-1","parameterCategory":2,"la1":30.2992,"la2":30.254,"lo1":-89.0895,"lo2":-89.0443,"dy":0.0025,"dx":0.0025,"nx":19,"ny":19,"refTime":"2026-04-21T03:00:00:Z","depth":"2","parameterNumber":3,"parameterNumberName":"V-component_of_CURRENTS"},"data":[0,0,0,-0.037,-0.0368,-0.0278,-0.0278,-0.0113,-0.0112,0,0,0,0,0,0,0,0,0,0,0,-0.0401,-0.0401,-0.037,-0.0368,-0.0278,-0.0278,-0.0113,-0.0112,0,0,0,0,0,0,0,0,0,0,0,-0.0401,-0.0401,-0.0401,-0.0368,-0.0279,-0.0278,-0.0114,-0.0189,0,0,0,0,0,0,0,0,0,0,-0.0281,-0.0329,-0.0401,-0.0401,-0.0368,-0.0279,-0.0278,-0.0193,-0.0185,-0.0146,0,-0.0146,0,-0.0131,-0.0101,-0.0101,0,0,0,-0.0349,-0.0336,-0.0311,-0.0401,-0.0367,-0.0279,-0.0313,-0.0189,-0.0179,-0.0134,-0.0143,-0.0137,-0.0129,-0.01,-0.01,0.001,0.001,0,0,-0.0354,-0.0379,-0.0318,-0.0305,-0.036,-0.0317,-0.0311,-0.0183,-0.0179,-0.0143,-0.0133,-0.0126,-0.0099,-0.0098,0.001,0.001,0,0,0,-0.0381,-0.0383,-0.0361,-0.0312,-0.0303,-0.0314,-0.0308,-0.0185,-0.0178,-0.0132,-0.0124,-0.0099,-0.0097,0.001,0.001,-0.0087,0,0,0,-0.0383,-0.04,-0.0364,-0.0376,-0.0306,-0.0251,-0.0313,-0.0186,-0.0172,-0.0125,-0.0098,-0.0095,0.001,0.001,-0.0084,-0.0133,0,0,0,-0.0403,-0.0401,-0.0396,-0.0378,-0.0348,-0.0253,-0.0238,-0.0183,-0.0167,-0.0101,-0.0095,0.001,0.001,-0.0082,-0.0129,-0.0076,0,0,0,-0.0422,-0.0452,-0.0397,-0.0424,-0.0349,-0.032,-0.0239,-0.0201,-0.0154,-0.0098,0.001,0.001,-0.0081,-0.0126,-0.0074,0.001,0.001,0,0,-0.0478,-0.0459,-0.0476,-0.0426,-0.0435,-0.033,-0.0308,-0.0211,-0.0133,-0.0025,-0.0022,-0.0085,-0.0128,-0.0075,0.0015,0.0015,0,0,0,-0.0506,-0.0521,-0.0513,-0.0502,-0.0451,-0.039,-0.0289,-0.0225,-0.0129,-0.0106,-0.0056,-0.0079,-0.0043,0.0012,0.0012,0.0011,0.0011,0.0011,0.0011,-0.0605,-0.0582,-0.0611,-0.0572,-0.0538,-0.0423,-0.0359,-0.0244,-0.0172,-0.0139,-0.0137,-0.0137,-0.0081,-0.008,-0.0106,-0.0107,-0.0107,-0.0107,-0.0108,-0.0708,-0.0733,-0.0684,-0.0707,-0.062,-0.0578,-0.0414,-0.0341,-0.0217,-0.0181,-0.014,-0.0068,-0.0085,-0.0115,-0.0113,-0.0112,-0.0112,-0.0111,-0.0111,-0.0787,-0.0797,-0.0799,-0.0813,-0.0776,-0.0668,-0.0582,-0.046,-0.0308,-0.0279,-0.0132,-0.0129,-0.0179,-0.0234,-0.0234,-0.0234,-0.0234,-0.0234,-0.0234,-0.087,-0.087,-0.0921,-0.0919,-0.0918,-0.0861,-0.0682,-0.0564,-0.0348,-0.0219,-0.0216,-0.0177,-0.0173,-0.0183,-0.0235,-0.0235,-0.0235,-0.0235,-0.0235,-0.0974,-0.0967,-0.1051,-0.1072,-0.1064,-0.0997,-0.0826,-0.0513,-0.0362,-0.0221,-0.014,-0.0143,-0.0085,-0.0082,-0.0087,-0.0111,-0.0111,-0.0111,-0.0111,-0.1036,-0.1043,-0.1147,-0.1193,-0.1192,-0.1061,-0.0828,-0.049,-0.0189,-0.0061,-0.0064,-0.0046,-0.0051,0.0011,0.0011,0.0009,0.001,0.001,0.001,-0.1095,-0.1125,-0.1202,-0.1245,-0.1245,-0.1099,-0.0839,-0.0389,-0.0007,0.0009,-0.0097,-0.0092,-0.0071,-0.0077,0.0016,0.0016,0.0013,0,0]}],[{"header":{"parameterUnit":"m.s-1","parameterCategory":2,"la1":30.2992,"la2":30.254,"lo1":-89.0895,"lo2":-89.0443,"dy":0.0025,"dx":0.0025,"nx":19,"ny":19,"refTime":"2026-04-21T03:00:00:Z","depth":"4","parameterNumber":2,"parameterNumberName":"U-component_of_CURRENTS"},"data":[0,0,0,-0.188,-0.1883,-0.203,-0.2031,-0.2107,-0.2107,0,0,0,0,0,0,0,0,0,0,0,-0.183,-0.1831,-0.1879,-0.1883,-0.203,-0.2031,-0.2107,-0.2107,0,0,0,0,0,0,0,0,0,0,0,-0.183,-0.1831,-0.1833,-0.1884,-0.203,-0.2031,-0.2107,-0.2023,0,0,0,0,0,0,0,0,0,0,-0.1894,-0.1868,-0.1831,-0.1833,-0.1885,-0.203,-0.2031,-0.202,-0.2028,-0.2008,0,-0.2042,0,-0.2074,-0.211,-0.211,0,0,0,-0.1882,-0.1861,-0.1899,-0.1833,-0.1886,-0.203,-0.1964,-0.2026,-0.2035,-0.2018,-0.2043,-0.2047,-0.2075,-0.211,-0.211,-0.2176,-0.2177,0,0,-0.1874,-0.1856,-0.1893,-0.1905,-0.1935,-0.1959,-0.1968,-0.2032,-0.2044,-0.2043,-0.2049,-0.2077,-0.211,-0.2111,-0.2176,-0.2176,0,0,0,-0.1851,-0.185,-0.1888,-0.19,-0.1936,-0.1963,-0.1974,-0.2042,-0.2055,-0.205,-0.2078,-0.2111,-0.2111,-0.2175,-0.2176,-0.2222,0,0,0,-0.1846,-0.1837,-0.1885,-0.1875,-0.1935,-0.2007,-0.1982,-0.2051,-0.2059,-0.2077,-0.2111,-0.2112,-0.2175,-0.2176,-0.222,-0.2216,0,0,0,-0.1822,-0.1834,-0.1855,-0.1874,-0.1938,-0.2007,-0.2025,-0.2054,-0.2075,-0.211,-0.2112,-0.2174,-0.2175,-0.2218,-0.2213,-0.2199,0,0,0,-0.1792,-0.1827,-0.1855,-0.1908,-0.1937,-0.2027,-0.2025,-0.2098,-0.2134,-0.2111,-0.2175,-0.2176,-0.2217,-0.2211,-0.2198,-0.191,0,0,0,-0.1813,-0.1829,-0.1861,-0.1889,-0.1967,-0.2006,-0.2086,-0.2133,-0.2136,-0.2144,-0.2147,-0.2221,-0.2213,-0.2199,-0.1973,0,0,0,0,-0.1853,-0.1872,-0.1903,-0.196,-0.2028,-0.2089,-0.2146,-0.2163,-0.2207,-0.2164,-0.2228,-0.2221,-0.2211,-0.2041,-0.2181,-0.2181,-0.2181,-0.218,-0.218,-0.1828,-0.1878,-0.193,-0.1999,-0.2062,-0.2152,-0.2195,-0.2226,-0.2237,-0.2265,-0.2266,-0.2293,-0.2118,-0.2286,-0.2286,-0.2286,-0.2287,-0.2287,-0.2287,-0.183,-0.1843,-0.1935,-0.2005,-0.2086,-0.2162,-0.224,-0.2269,-0.2303,-0.2309,-0.2297,-0.2111,-0.2292,-0.2291,-0.229,-0.2289,-0.2289,-0.2289,-0.2288,-0.1772,-0.1782,-0.1861,-0.196,-0.2061,-0.2166,-0.2207,-0.2288,-0.2323,-0.2338,-0.2132,-0.2306,-0.2291,-0.2337,-0.2337,-0.2337,-0.2337,-0.2337,-0.2337,-0.1658,-0.1735,-0.1779,-0.1907,-0.1969,-0.2064,-0.2192,-0.2197,-0.2264,-0.213,-0.2345,-0.2309,-0.2307,-0.2293,-0.2336,-0.2336,-0.2336,-0.2336,-0.2336,-0.1536,-0.1595,-0.1637,-0.1699,-0.1823,-0.1871,-0.2047,-0.2001,-0.1978,-0.1897,-0.2003,-0.202,-0.1962,-0.1969,-0.194,-0.188,-0.1877,-0.1873,0,-0.1426,-0.1468,-0.1491,-0.1534,-0.1567,-0.1728,-0.1642,-0.1691,-0.1736,-0.1679,-0.197,-0.2093,-0.2102,-0.2042,-0.2041,-0.2008,0,0,0,-0.1326,-0.1358,-0.1322,-0.1403,-0.143,-0.1463,-0.16,-0.1531,-0.176,-0.1641,-0.1783,-0.1807,-0.2134,-0.2334,-0.2285,-0.2283,-0.2256,0,0]},{"header":{"parameterUnit":"m.s-1","parameterCategory":2,"la1":30.2992,"la2":30.254,"lo1":-89.0895,"lo2":-89.0443,"dy":0.0025,"dx":0.0025,"nx":19,"ny":19,"refTime":"2026-04-21T03:00:00:Z","depth":"4","parameterNumber":3,"parameterNumberName":"V-component_of_CURRENTS"},"data":[0,0,0,-0.0253,-0.0252,-0.0196,-0.0196,-0.0077,-0.0076,0,0,0,0,0,0,0,0,0,0,0,-0.0273,-0.0273,-0.0253,-0.0252,-0.0196,-0.0196,-0.0077,-0.0076,0,0,0,0,0,0,0,0,0,0,0,-0.0273,-0.0273,-0.0273,-0.0252,-0.0197,-0.0196,-0.0078,-0.0128,0,0,0,0,0,0,0,0,0,0,-0.0186,-0.0223,-0.0273,-0.0273,-0.0252,-0.0197,-0.0196,-0.013,-0.0124,-0.0094,0,-0.0098,0,-0.009,-0.0069,-0.0068,0,0,0,-0.0236,-0.0228,-0.021,-0.0273,-0.0251,-0.0197,-0.0217,-0.0127,-0.0121,-0.0086,-0.0097,-0.0092,-0.0088,-0.0068,-0.0067,0.0009,0.0009,0,0,-0.0239,-0.0259,-0.0215,-0.0207,-0.0253,-0.0219,-0.0215,-0.0124,-0.0124,-0.0096,-0.009,-0.0086,-0.0067,-0.0066,0.0009,0.0009,0,0,0,-0.0258,-0.0262,-0.0247,-0.0211,-0.0208,-0.0218,-0.0214,-0.0127,-0.0123,-0.0089,-0.0084,-0.0067,-0.0065,0.0009,0.0009,-0.0083,0,0,0,-0.026,-0.0274,-0.0249,-0.026,-0.0211,-0.0175,-0.022,-0.0129,-0.0119,-0.0085,-0.0067,-0.0064,0.0009,0.0009,-0.008,-0.0128,0,0,0,-0.0273,-0.0275,-0.0273,-0.0261,-0.0244,-0.0177,-0.0166,-0.0127,-0.0116,-0.0068,-0.0064,0.0009,0.0009,-0.0078,-0.0123,-0.0089,0,0,0,-0.0287,-0.0311,-0.0274,-0.0299,-0.0245,-0.023,-0.0167,-0.0143,-0.011,-0.0066,0.0009,0.0009,-0.0077,-0.012,-0.0088,-0.0104,0,0,0,-0.0329,-0.0317,-0.0332,-0.0298,-0.0316,-0.0236,-0.0233,-0.016,-0.0094,-0.0014,-0.0013,-0.0081,-0.0123,-0.0089,-0.0104,0,0,0,0,-0.0353,-0.037,-0.0367,-0.0368,-0.0334,-0.0301,-0.0226,-0.0177,-0.0107,-0.0077,-0.0055,-0.0078,-0.0054,-0.0057,0.0009,0.0009,0.0009,0.0009,0.0009,-0.0432,-0.042,-0.0452,-0.0434,-0.0417,-0.034,-0.0299,-0.0212,-0.0149,-0.0127,-0.0134,-0.0148,-0.0156,-0.0106,-0.0107,-0.0107,-0.0107,-0.0107,-0.0108,-0.0517,-0.0541,-0.0523,-0.0555,-0.0505,-0.0487,-0.0368,-0.031,-0.022,-0.0181,-0.0152,-0.0133,-0.0116,-0.0114,-0.0113,-0.0112,-0.0112,-0.0111,-0.0111,-0.0578,-0.0589,-0.061,-0.0649,-0.0647,-0.0579,-0.0532,-0.0435,-0.0307,-0.0289,-0.0224,-0.0183,-0.0193,-0.0254,-0.0254,-0.0254,-0.0254,-0.0254,-0.0254,-0.0631,-0.0649,-0.0713,-0.0742,-0.0765,-0.0746,-0.0628,-0.0544,-0.041,-0.0322,-0.03,-0.0196,-0.0191,-0.0199,-0.0256,-0.0255,-0.0255,-0.0255,-0.0255,-0.0701,-0.0712,-0.0807,-0.0852,-0.0895,-0.0863,-0.0767,-0.0567,-0.0473,-0.0363,-0.0305,-0.0302,-0.0256,-0.0249,-0.0257,-0.0333,-0.0334,-0.0334,0,-0.0741,-0.0756,-0.0882,-0.0957,-0.0984,-0.0925,-0.0792,-0.0662,-0.048,-0.0482,-0.0475,-0.042,-0.0413,-0.0372,-0.0365,-0.0381,0,0,0,-0.0783,-0.0819,-0.091,-0.0988,-0.102,-0.0857,-0.075,-0.0675,-0.0518,-0.0405,-0.0344,-0.0342,-0.0339,-0.0259,-0.018,-0.0174,-0.0181,0,0]}]]